Погода в Паршине

Россия / Ярославская область     58°39′06″N   39°31′11″E
темп.,
°C
ветер,
м/с
пор.,
м/с
влажн.,
%
обл.,
%
осадки,
мм/ч
давл.,
гПа
погр.,
м
13 апреля, вт
вт1300:00+7ююв41391100 0.0 1030568
03:00+6ююв41196100 0.0 1029407
06:00+7ююв41197100 0.0 1028358
09:00+9ююв41086100 0.0 1026411
12:00+15ю51069100 0.0 1024666
15:00+17ю51062100 0.0 10231112
18:00+14ю3970100 0.0 1022234
21:00+10ю31282100 0.0 1023233
14 апреля, ср
ср1400:00+9ю3128438 0.0 1022219
03:00+8ююв31083100 0.0 1022184
06:00+7ююв310835 0.0 1021203
09:00+13ю410655 0.0 1021401
12:00+17ю595046 0.0 1020817
15:00+18ю584628 0.0 10181338
18:00+15ю41052100 0.0 1018393
21:00+10ю2870100 0.0 1018143
15 апреля, чт
чт1500:00+8зюз227793 0.0 101812
03:00+7с249459 0.0 101995
06:00+8ссв3690100 0.0 1020406
09:00+8ссв3589100 0.0 1021366
12:00+7ссв4787100 0.0 1022475
15:00+6св51184100 0.1 1023470
18:00+5св41088100 0.3 1023564
21:00+5св41187100 0.4 1024618
16 апреля, пт
пт1600:00+5св41087100 0.0 1024685
03:00+4св4108577 0.0 1025484
06:00+1св411810 0.0 1026372
09:00+5св585965 0.0 1027697
12:00+8св574423 0.0 10281168
15:00+10св56405 0.0 10281363
18:00+9св474725 0.0 10281035
21:00+4ссв310705 0.0 1030222
17 апреля, сб
сб1700:00+2ссв28750 0.0 1031152
03:00+1ссв311815 0.0 1033376
06:000ссв411815 0.0 1035452
09:00+3св57515 0.0 1036849
12:00+7св46375 0.0 10371353
15:00+8св46325 0.0 10361552
18:00+7св35406 0.0 1037739
21:00+3св225971 0.0 103816